| time (UTC) | temp F | wind direction | speed knots | gust knots | rain 1hr in | rain 24hr in | rain mn in | humidity % | barometer mb |
| 20260507003004 | 56 | 242 | 1.7 | 3.5 | 0.00 | 0.10 | 0.00 | 89 | 1011.8 |
| 20260507001508 | 56 | 242 | 2.6 | 3.5 | 0.00 | 0.10 | 0.00 | 89 | 1011.6 |
| 20260507000014 | 57 | 242 | 0.9 | 3.5 | 0.00 | 0.11 | 0.00 | 88 | 1011.6 |
| 20260506234509 | 57 | 242 | 0.9 | 3.5 | 0.00 | 0.11 | 0.00 | 88 | 1011.7 |
| 20260506233012 | 57 | 242 | 0.9 | 2.6 | 0.00 | 0.12 | 0.00 | 88 | 1011.7 |
| 20260506231517 | 57 | 242 | 0.9 | 3.5 | 0.00 | 0.13 | 0.00 | 88 | 1011.7 |
| 20260506230013 | 57 | 242 | 1.7 | 2.6 | 0.00 | 0.14 | 0.00 | 87 | 1011.7 |
| 20260506224512 | 57 | 242 | 1.7 | 2.6 | 0.00 | 0.14 | 0.00 | 87 | 1011.7 |
| 20260506223014 | 58 | 242 | 0.9 | 3.5 | 0.00 | 0.14 | 0.00 | 87 | 1011.7 |
| 20260506221512 | 58 | 242 | 1.7 | 4.3 | 0.00 | 0.14 | 0.00 | 87 | 1011.7 |
| 20260506220012 | 58 | 242 | 1.7 | 3.5 | 0.00 | 0.14 | 0.00 | 86 | 1011.6 |
| 20260506214511 | 58 | 245 | 1.7 | 3.5 | 0.00 | 0.14 | 0.14 | 86 | 1011.5 |
| 20260506213010 | 59 | 259 | 1.7 | 3.5 | 0.00 | 0.14 | 0.14 | 84 | 1011.7 |
| 20260506211516 | 60 | 259 | 0.0 | 0.9 | 0.00 | 0.14 | 0.14 | 82 | 1011.5 |
| 20260506210016 | 61 | 259 | 0.0 | 0.0 | 0.00 | 0.14 | 0.14 | 79 | 1011.4 |
| 20260506204516 | 62 | 130 | 0.9 | 7.0 | 0.00 | 0.14 | 0.14 | 79 | 1011.3 |
| 20260506203022 | 62 | 70 | 4.3 | 9.6 | 0.00 | 0.14 | 0.14 | 79 | 1011.3 |
| 20260506201529 | 63 | 314 | 0.0 | 2.6 | 0.00 | 0.14 | 0.14 | 78 | 1011.1 |
| 20260506200015 | 63 | 90 | 0.0 | 2.6 | 0.00 | 0.14 | 0.14 | 78 | 1010.9 |
| 20260506194521 | 63 | 287 | 0.0 | 5.2 | 0.00 | 0.14 | 0.14 | 78 | 1010.6 |
| 20260506193021 | 63 | 112 | 0.9 | 8.7 | 0.00 | 0.14 | 0.14 | 77 | 1010.2 |
| 20260506191516 | 63 | 113 | 0.0 | 2.6 | 0.00 | 0.14 | 0.14 | 76 | 1010.1 |
| 20260506190022 | 63 | 135 | 0.0 | 1.7 | 0.00 | 0.14 | 0.14 | 75 | 1009.7 |
| 20260506184521 | 63 | 276 | 0.9 | 5.2 | 0.00 | 0.14 | 0.14 | 74 | 1009.5 |
| 20260506183027 | 64 | 293 | 0.9 | 4.3 | 0.00 | 0.14 | 0.14 | 73 | 1009.3 |
| 20260506181520 | 64 | 311 | 3.5 | 7.8 | 0.00 | 0.14 | 0.14 | 73 | 1009.3 |
| 20260506180008 | 64 | 143 | 0.9 | 12.2 | 0.00 | 0.14 | 0.14 | 73 | 1009.0 |
| 20260506174508 | 64 | 118 | 0.0 | 11.3 | 0.00 | 0.14 | 0.14 | 73 | 1009.0 |
| 20260506173004 | 64 | 144 | 0.9 | 8.7 | 0.00 | 0.14 | 0.14 | 73 | 1009.0 |
| 20260506171504 | 65 | 158 | 0.9 | 9.6 | 0.00 | 0.14 | 0.14 | 71 | 1009.0 |
| 20260506170003 | 65 | 101 | 1.7 | 9.6 | 0.00 | 0.14 | 0.14 | 71 | 1009.0 |
| 20260506164506 | 65 | 109 | 1.7 | 9.6 | 0.00 | 0.14 | 0.14 | 71 | 1009.0 |
| 20260506163004 | 65 | 94 | 1.7 | 9.6 | 0.00 | 0.14 | 0.14 | 71 | 1008.9 |
| 20260506161508 | 66 | 98 | 2.6 | 12.2 | 0.00 | 0.14 | 0.14 | 70 | 1009.0 |
| 20260506160008 | 66 | 252 | 1.7 | 8.7 | 0.00 | 0.14 | 0.14 | 70 | 1008.9 |
| 20260506154503 | 66 | 111 | 3.5 | 10.4 | 0.00 | 0.14 | 0.14 | 70 | 1009.0 |
| 20260506153004 | 66 | 10 | 1.7 | 9.6 | 0.00 | 0.14 | 0.14 | 70 | 1008.9 |
| 20260506151506 | 66 | 68 | 1.7 | 9.6 | 0.00 | 0.14 | 0.14 | 71 | 1009.0 |
| 20260506150008 | 66 | 121 | 0.9 | 7.0 | 0.00 | 0.14 | 0.14 | 72 | 1008.9 |
| 20260506144515 | 66 | 121 | 3.5 | 13.0 | 0.00 | 0.14 | 0.14 | 72 | 1009.0 |
| 20260506143020 | 66 | 115 | 2.6 | 10.4 | 0.00 | 0.14 | 0.14 | 71 | 1009.0 |
| 20260506141507 | 66 | 75 | 3.5 | 15.6 | 0.00 | 0.14 | 0.14 | 70 | 1008.8 |
| 20260506140007 | 66 | 30 | 1.7 | 12.2 | 0.00 | 0.14 | 0.14 | 70 | 1009.0 |
| 20260506134513 | 66 | 213 | 4.3 | 17.4 | 0.00 | 0.14 | 0.14 | 70 | 1009.1 |
| 20260506133016 | 67 | 112 | 6.1 | 10.4 | 0.00 | 0.14 | 0.14 | 69 | 1009.3 |
| 20260506131515 | 67 | 88 | 3.5 | 10.4 | 0.00 | 0.14 | 0.14 | 69 | 1009.2 |
| 20260506130015 | 67 | 112 | 3.5 | 13.0 | 0.00 | 0.14 | 0.14 | 69 | 1009.2 |
| 20260506124507 | 67 | 107 | 2.6 | 15.6 | 0.00 | 0.14 | 0.14 | 70 | 1009.3 |
| 20260506123008 | 67 | 82 | 2.6 | 9.6 | 0.00 | 0.14 | 0.14 | 68 | 1009.2 |
| 20260506121522 | 67 | 24 | 1.7 | 12.2 | 0.00 | 0.14 | 0.14 | 69 | 1009.2 |
| 20260506120037 | 67 | 146 | 1.7 | 12.2 | 0.00 | 0.14 | 0.14 | 68 | 1009.4 |
| 20260506114522 | 67 | 197 | 3.5 | 13.9 | 0.00 | 0.14 | 0.14 | 69 | 1009.4 |
| 20260506113032 | 67 | 313 | 3.5 | 14.8 | 0.00 | 0.14 | 0.14 | 70 | 1009.4 |
| 20260506111528 | 67 | 117 | 2.6 | 13.0 | 0.00 | 0.14 | 0.14 | 68 | 1009.4 |
| 20260506110013 | 67 | 92 | 4.3 | 16.5 | 0.00 | 0.14 | 0.14 | 66 | 1009.6 |
| 20260506104525 | 67 | 100 | 5.2 | 15.6 | 0.00 | 0.14 | 0.14 | 66 | 1009.6 |
| 20260506103030 | 67 | 119 | 5.2 | 12.2 | 0.00 | 0.14 | 0.14 | 70 | 1009.7 |
| 20260506101511 | 66 | 360 | 4.3 | 13.0 | 0.00 | 0.14 | 0.14 | 70 | 1009.7 |
| 20260506100018 | 66 | 84 | 5.2 | 13.0 | 0.00 | 0.14 | 0.14 | 70 | 1009.8 |
| 20260506094520 | 66 | 241 | 4.3 | 12.2 | 0.00 | 0.14 | 0.14 | 68 | 1009.7 |
| 20260506093019 | 66 | 92 | 1.7 | 7.0 | 0.00 | 0.14 | 0.14 | 68 | 1009.7 |
| 20260506091526 | 66 | 252 | 2.6 | 7.0 | 0.00 | 0.14 | 0.14 | 70 | 1009.7 |
| 20260506090018 | 66 | 107 | 0.9 | 2.6 | 0.00 | 0.14 | 0.14 | 70 | 1009.6 |
| 20260506084507 | 65 | 125 | 0.9 | 5.2 | 0.00 | 0.14 | 0.14 | 72 | 1009.6 |
| 20260506083006 | 65 | 123 | 0.9 | 5.2 | 0.00 | 0.14 | 0.14 | 72 | 1009.6 |
| 20260506081504 | 64 | 129 | 0.9 | 6.1 | 0.00 | 0.14 | 0.14 | 74 | 1009.7 |
| 20260506073015 | 62 | 144 | 1.7 | 6.1 | 0.00 | 0.18 | 0.14 | 78 | 1009.6 |
| 20260506071505 | 62 | 290 | 0.0 | 6.1 | 0.00 | 0.18 | 0.14 | 78 | 1009.4 |
| 20260506061543 | 58 | 283 | 1.7 | 3.5 | 0.00 | 0.18 | 0.14 | 90 | 1008.8 |
| 20260506044524 | 56 | 246 | 0.0 | 3.5 | 0.09 | 0.18 | 0.14 | 91 | 1009.4 |
| 20260506043031 | 56 | 280 | 3.5 | 9.6 | 0.07 | 0.15 | 0.11 | 91 | 1009.7 |
| 20260506041521 | 57 | 250 | 4.3 | 7.0 | 0.02 | 0.11 | 0.07 | 92 | 1009.7 |
| 20260506040019 | 57 | 250 | 1.7 | 3.5 | 0.00 | 0.10 | 0.04 | 92 | 1009.5 |
| 20260506034509 | 57 | 246 | 1.7 | 3.5 | 0.00 | 0.11 | 0.04 | 92 | 1009.6 |
| 20260506033027 | 57 | 248 | 1.7 | 3.5 | 0.00 | 0.12 | 0.04 | 91 | 1009.7 |
| 20260506031513 | 56 | 257 | 0.9 | 2.6 | 0.00 | 0.15 | 0.04 | 91 | 1009.8 |
| 20260506030004 | 56 | 261 | 2.6 | 3.5 | 0.00 | 0.22 | 0.04 | 91 | 1010.0 |
| 20260506024510 | 57 | 240 | 1.7 | 3.5 | 0.00 | 0.31 | 0.03 | 91 | 1010.1 |
| 20260506023009 | 57 | 246 | 1.7 | 3.5 | 0.00 | 0.35 | 0.03 | 91 | 1010.0 |
| 20260506021512 | 57 | 246 | 1.7 | 3.5 | 0.00 | 0.38 | 0.03 | 91 | 1010.3 |
| 20260506020012 | 57 | 251 | 1.7 | 3.5 | 0.00 | 0.40 | 0.03 | 91 | 1010.4 |
| 20260506014507 | 56 | 247 | 1.7 | 3.5 | 0.00 | 0.44 | 0.03 | 91 | 1010.4 |
| 20260506013004 | 56 | 258 | 1.7 | 3.5 | 0.00 | 0.51 | 0.03 | 90 | 1010.8 |
| 20260506011507 | 56 | 244 | 0.9 | 4.3 | 0.00 | 0.55 | 0.03 | 90 | 1010.7 |
| 20260506010012 | 57 | 257 | 1.7 | 5.2 | 0.00 | 0.60 | 0.03 | 90 | 1010.8 |
| 20260506004519 | 57 | 251 | 1.7 | 4.3 | 0.01 | 0.65 | 0.03 | 90 | 1011.1 |